475P/Spacewatch-LINEAR (2024)

Japanese version
Home page
Updated on June 5, 2024

---------------------------------------------------------------------

* Profile

Designation 475P/2023 V7
Recovery Date November 11, 13, 25, 2023 and January 17, 2024
Magnitude 20.8 mag, 19.8 mag, 20.6 mag, 20.1 mag
Recoverer M. Micheli (European Space Agency's Optical Ground Station at Tenerife), F. Ocana (Calar Alto Schmidt telescope), Pan-STARRS 2 telescope (Haleakala), M. Jaeger (Vienna)

* Pictures

* Orbital Elements

Epoch 2024 Mar. 31.0 TT = JDT 2460400.5
T 2024 June 1.64617 TT                                  Rudenko
q   4.0774719            (2000.0)            P               Q
n   0.04989057     Peri.   40.39717     -0.97963933     +0.14840232
a   7.3078629      Node   147.37754     -0.17276601     -0.96621824
e   0.4420432      Incl.   14.52597     +0.10226776     -0.21071084
P  19.8
>From 136 observations 2004 Feb. 11-2024 Mar. 17, mean residual 0".7.

* Magnitudes Graph

        m1 = 10.5 + 5 log d + 10.0 log r

---------------------------------------------------------------------

The orbital elements are published on M.P.E.C. 2024-F34.
The magnitudes graphs are made with Comet for Windows.

---------------------------------------------------------------------

Copyright(C) Seiichi Yoshida (comet@aerith.net). All rights reserved.